STARLINK-1585 (46117 NORAD) Tracking and Keplerian Element Data

This shows tracking and keplerian element data for the satellite.

Feedback or suggestion? Click here.




ElementValue
Catalog46117
NameSTARLINK-1585
Epoch Orbit174
Epoch Day335.91670139
Epoch Year2020
RAAN297.2462
Inclination53.0027
Eccentricity0.0001428
Argument of Perigee72.6625
Mean Anonmoly199.2198
Mean Motion15.05590756
Decay Rate-0.00022474
L11 46117U 20057A 20335.91670139 -.00022474 00000-0 -15277-2 0 9997
L22 46117 53.0027 297.2462 0001428 72.6625 199.2198 15.05590756 1747

Live tracking and technical data element details for STARLINK-1585 (NORAD 46117). STARLINK-1585 can be tracked NOW for your location showing map with azimuth and elevation plus other details from your city location.

Track the satellite on the map from your city or location and see movement details for azimuth, elevation, latitude, longitude, range, height, and movement on the map or in text.







IsCatalogInMostPopularTable: catalog: 46117, numindb: 16
Update: records affected: 1



GetName: 46117 STARLINK-1585

Hit Count: updated at: Tue, 01 Dec 2020 20:25:17 GMT